Weather History for KHIF - January, 2014

Change the Weather History Date:

Tuesday, January 14, 2014

  Actual Average (WUND) Record (WUND)
Temperature  
Mean Temperature 32 °F -  
Max Temperature 39 °F - - (-1)
Min Temperature 24 °F - - (-1)
Degree Days  
Heating Degree Days 34    
Moisture  
Dew Point 20 °F    
Average Humidity 59    
Maximum Humidity 73    
Minimum Humidity 46    
Precipitation  
Precipitation 0.00 in - - ()
Snow  
Snow 0.00 in - - ()
Snow Depth 7.00 in    
Sea Level Pressure  
Sea Level Pressure 30.60 in    
Wind  
Wind Speed 4 mph (WNW)    
Max Wind Speed 8 mph    
Max Gust Speed -    
Visibility 10 miles    
Events      
Averages and records for this station are not official NWS values.
T = Trace of Precipitation, MM = Missing Value Source: NWS Daily Summary

Daily Weather History Graph

Daily Weather History Graph

Search for Another Location

Airport or City:

Trip Planner

Search our weather history database for the weather conditions in past years. The results will help you decide how hot, cold, wet, or windy it might be!

Date:

Astronomy

Jan. 14, 2014 Rise Set
Actual Time 7:51 AM MST 5:23 PM MST
Civil Twilight 7:20 AM MST 5:53 PM MST
Nautical Twilight 6:46 AM MST 6:27 PM MST
Astronomical Twilight 6:13 AM MST 7:00 PM MST
Moon 4:31 PM MST (1/14) 6:28 AM MST (1/14)
Length of Visible Light 10h 32m
Length of Day
9h 31m
Waxing Gibbous, 98% of the Moon is Illuminated
Jan 14
Waxing Gibbous
Jan 15
Full
Jan 23
Last Quarter
Jan 30
New
Feb 6
First Quarter

Hourly Weather History & Observations

Time (MST) Temp. Windchill Dew Point Humidity Pressure Visibility Wind Dir Wind Speed Gust Speed Precip Events Conditions
12:58 AM 33.6 °F 29.4 °F 19.0 °F 55% 30.45 in 10.0 mi SW 4.6 mph - N/A   Clear
1:58 AM 33.8 °F 27.7 °F 18.9 °F 54% 30.49 in 10.0 mi South 6.9 mph - N/A   Clear
2:58 AM 34.2 °F - 19.0 °F 54% 30.50 in 10.0 mi Calm Calm - N/A   Clear
3:58 AM 30.2 °F 26.7 °F 18.5 °F 62% 30.52 in 10.0 mi ENE 3.5 mph - N/A   Clear
4:58 AM 29.5 °F - 18.3 °F 63% 30.53 in 10.0 mi Variable 1.2 mph - N/A   Clear
5:58 AM 24.1 °F 19.7 °F 16.5 °F 73% 30.57 in 10.0 mi WSW 3.5 mph - N/A   Clear
6:58 AM 24.6 °F 20.3 °F 16.9 °F 72% 30.59 in 10.0 mi WSW 3.5 mph - N/A   Clear
7:58 AM 30.2 °F - 18.0 °F 60% 30.61 in 10.0 mi North 1.2 mph - N/A   Scattered Clouds
8:58 AM 32.2 °F 28.9 °F 19.8 °F 60% 30.63 in 10.0 mi ENE 3.5 mph - N/A   Clear
9:58 AM 30.6 °F - 20.1 °F 65% 30.63 in 10.0 mi Calm Calm - N/A   Clear
10:58 AM 33.6 °F 30.6 °F 21.6 °F 61% 30.66 in 10.0 mi SSW 3.5 mph - N/A   Clear
11:58 AM 37.6 °F 34.0 °F 20.8 °F 51% 30.64 in 10.0 mi WNW 4.6 mph - N/A   Clear
12:58 PM 38.1 °F - 21.0 °F 50% 30.62 in 10.0 mi NNW 1.2 mph - N/A   Clear
1:58 PM 39.0 °F - 21.2 °F 49% 30.61 in 10.0 mi WSW 2.3 mph - N/A   Clear
2:58 PM 38.8 °F 33.2 °F 22.5 °F 52% 30.60 in 10.0 mi WNW 8.1 mph - N/A   Clear
3:58 PM 39.7 °F 36.5 °F 20.5 °F 46% 30.62 in 10.0 mi NW 4.6 mph - N/A   Clear
4:58 PM 37.9 °F - 19.8 °F 48% 30.63 in 10.0 mi NW 2.3 mph - N/A   Clear
5:58 PM 36.3 °F - 20.1 °F 52% 30.65 in 10.0 mi NNW 2.3 mph - N/A   Clear
6:58 PM 33.3 °F - 20.7 °F 60% 30.68 in 10.0 mi ENE 2.3 mph - N/A   Clear
7:58 PM 31.6 °F 28.3 °F 21.0 °F 65% 30.66 in 10.0 mi ESE 3.5 mph - N/A   Clear
8:58 PM 31.6 °F 28.3 °F 18.3 °F 58% 30.65 in 10.0 mi Variable 3.5 mph - N/A   Clear
9:58 PM 29.3 °F 24.3 °F 19.9 °F 68% 30.67 in 10.0 mi ESE 4.6 mph - N/A   Clear
10:58 PM 30.4 °F 25.6 °F 19.8 °F 65% 30.66 in 10.0 mi SE 4.6 mph - N/A   Clear
11:58 PM 29.7 °F 23.7 °F 18.7 °F 64% 30.62 in 10.0 mi ESE 5.8 mph - N/A   Clear